TimeEDT,TemperatureF,Dew PointF,Humidity,Sea Level PressureIn,VisibilityMPH,Wind Direction,Wind SpeedMPH,Gust SpeedMPH,PrecipitationIn,Events,Conditions,WindDirDegrees,DateUTC
12:54 AM,61.0,55.0,81,30.08,-9999.0,North,-9999.0,-,N/A,,Unknown,0,2013-07-26 04:54:00
1:54 AM,59.0,55.0,87,30.07,-9999.0,North,-9999.0,-,N/A,,Unknown,0,2013-07-26 05:54:00
2:54 AM,57.9,55.0,90,30.06,-9999.0,North,-9999.0,-,N/A,,Unknown,0,2013-07-26 06:54:00
3:54 AM,57.9,54.0,87,30.07,-9999.0,North,-9999.0,-,N/A,,Unknown,0,2013-07-26 07:54:00
4:54 AM,57.0,54.0,89,30.06,-9999.0,North,-9999.0,-,N/A,,Unknown,0,2013-07-26 08:54:00
5:54 AM,57.0,54.0,89,30.06,-9999.0,North,-9999.0,-,N/A,,Unknown,0,2013-07-26 09:54:00
6:54 AM,57.0,54.0,89,30.07,-9999.0,North,-9999.0,-,N/A,,Unknown,0,2013-07-26 10:54:00
7:54 AM,59.0,54.0,83,30.06,-9999.0,North,-9999.0,-,N/A,,Unknown,0,2013-07-26 11:54:00
8:54 AM,62.1,54.0,75,30.05,-9999.0,North,-9999.0,-,N/A,,Unknown,0,2013-07-26 12:54:00
9:54 AM,64.9,55.0,70,30.04,-9999.0,North,-9999.0,-,N/A,,Unknown,0,2013-07-26 13:54:00
10:54 AM,68.0,55.9,65,30.03,-9999.0,North,-9999.0,-,N/A,,Unknown,0,2013-07-26 14:54:00
11:54 AM,71.1,55.9,59,30.01,-9999.0,North,-9999.0,-,N/A,,Unknown,0,2013-07-26 15:54:00
12:54 PM,72.0,55.0,55,30.00,-9999.0,North,-9999.0,-,N/A,,Unknown,0,2013-07-26 16:54:00
1:54 PM,73.0,55.9,55,29.98,-9999.0,North,-9999.0,-,N/A,,Unknown,0,2013-07-26 17:54:00
2:54 PM,73.0,59.0,61,29.97,-9999.0,North,-9999.0,-,N/A,,Unknown,0,2013-07-26 18:54:00
3:54 PM,73.0,57.9,59,29.96,-9999.0,North,-9999.0,-,N/A,,Unknown,0,2013-07-26 19:54:00
4:54 PM,72.0,57.9,61,29.98,-9999.0,North,-9999.0,-,N/A,,Unknown,0,2013-07-26 20:54:00
5:54 PM,71.1,57.0,61,29.97,-9999.0,North,-9999.0,-,N/A,,Unknown,0,2013-07-26 21:54:00
6:54 PM,71.1,57.0,61,29.97,-9999.0,North,-9999.0,-,N/A,,Unknown,0,2013-07-26 22:54:00
7:54 PM,70.0,57.0,63,29.97,-9999.0,North,-9999.0,-,N/A,,Unknown,0,2013-07-26 23:54:00
8:54 PM,68.0,55.9,65,29.96,-9999.0,North,-9999.0,-,N/A,,Unknown,0,2013-07-27 00:54:00
9:54 PM,64.9,57.9,78,29.98,-9999.0,North,-9999.0,-,N/A,,Unknown,0,2013-07-27 01:54:00
10:54 PM,62.1,57.9,86,29.98,-9999.0,North,-9999.0,-,N/A,,Unknown,0,2013-07-27 02:54:00
11:54 PM,61.0,57.0,87,29.99,-9999.0,North,-9999.0,-,N/A,,Unknown,0,2013-07-27 03:54:00